Вернуться в каталог

STARLINK-2033

АктивенСвязьVLEO
NORAD 47650·PAYLOAD·🇺🇸 United States

Запущен Feb 16, 2021 с Cape Canaveral Space Force Station

Loading…

Ближайшие Пролёты (ближайшие 24 часа)

TLE

СвежийSource: CelesTrak SupGP

Эпоха: Sep 14, 2026, 21:07 UTC

1 47650C 21012AG  26257.88034722  .00109240  00000+0  12870-2 0  2576
2 47650  53.1563 232.0756 0007513  60.0338 249.0279 15.60657287    19

Отслеживайте STARLINK-2033 в реальном времени с AllMySat

Download on the App Store